Location: Alladorf
(49.9620°N, 11.3790°E)
Time: 19:24:05
(UTC+00:00)

MOS 1 Rocket - Pass Details

Date: 29 November 2020
Orbit: 613 x 831 km, 97.4° (Epoch: 25 January)

Event Time Altitude Azimuth Distance (km) Brightness Sun altitude
Rises 05:09:38 0° 173° (S) 3,071 6.9 -15.3°
Reaches altitude 10° 05:11:50 10° 176° (S) 2,191 6.1 -14.9°
Maximum altitude 05:16:39 67° 259° (W) 811 3.4 -14.2°
Drops below altitude 10° 05:21:48 10° 343° (NNW) 2,345 5.7 -13.4°
Sets 05:24:14 0° 346° (NNW) 3,307 6.5 -13.0°
